Location: Unspecified
(0.0000°N, 0.0000°E)
Time: 02:34:19
(UTC+00:00)

S-56A Canister/Altair - All Passes

Search period start: 24 November 2014 00:00
Search period end: 04 December 2014 00:00
Orbit: 634 x 2502 km, 38.9° (Epoch: 23 November)

Date Brightness Start Highest point End Pass type
(mag) Time Alt. Az. Time Alt. Az. Time Alt. Az.
24 Nov - 05:43:18 10° SSW 05:47:41 38° SE 05:51:50 10° ENE daylight
24 Nov - 07:48:32 10° WNW 07:51:26 17° NW 07:54:34 10° N daylight
24 Nov - 16:14:45 10° NNW 16:26:34 38° NE 16:39:54 10° ESE daylight
24 Nov - 18:18:57 10° NW 18:33:34 81° SW 18:48:06 10° SE visible
24 Nov - 20:28:47 10° W 20:40:44 28° SW 20:51:23 10° SSE visible
25 Nov - 05:11:17 10° SSW 05:15:36 30° SE 05:19:29 10° E visible
25 Nov - 07:15:54 10° W 07:19:15 21° NW 07:22:48 10° NNE daylight
25 Nov - 15:42:37 10° NNW 15:53:29 32° NE 16:06:05 10° E daylight
25 Nov - 17:46:08 10° NW 18:00:22 89° SW 18:15:17 10° SE visible
25 Nov - 19:54:52 10° W 20:07:35 33° SW 20:19:14 10° SSE visible
26 Nov - 04:39:16 10° SSW 04:43:27 24° SE 04:47:05 10° E visible
26 Nov - 06:43:20 10° W 06:47:08 27° NW 06:50:59 10° NNE daylight
26 Nov - 15:10:39 10° NNW 15:20:26 28° NE 15:32:02 10° E daylight
26 Nov - 17:13:27 10° NW 17:27:11 82° NE 17:42:19 10° SE daylight
26 Nov - 19:21:12 10° WNW 19:34:24 38° SW 19:46:57 10° SSE visible
27 Nov - 04:07:14 10° SSW 04:11:14 20° SE 04:14:39 10° E visible
27 Nov - 06:10:49 10° WSW 06:15:04 35° NW 06:19:09 10° NNE daylight
27 Nov - 14:38:52 10° N 14:47:28 23° NE 14:57:43 10° E daylight
27 Nov - 16:40:54 10° NW 16:54:01 74° NE 17:09:13 10° SE daylight
27 Nov - 18:47:45 10° WNW 19:01:11 43° SW 19:14:31 10° SSE visible
27 Nov - 21:04:47 10° SW 21:09:43 12° SSW 21:14:23 10° S visible
28 Nov - 03:35:11 10° S 03:38:57 17° SSE 03:42:09 10° ESE visible
28 Nov - 05:38:18 10° WSW 05:43:03 47° NW 05:47:17 10° NNE daylight
28 Nov - 14:07:20 10° N 14:14:32 19° NE 14:23:04 10° E daylight
28 Nov - 16:08:30 10° NW 16:20:55 66° NE 16:35:58 10° ESE daylight
28 Nov - 18:14:31 10° WNW 18:27:57 48° SW 18:41:57 10° SSE visible
28 Nov - 20:29:07 10° WSW 20:36:24 15° SSW 20:43:18 10° S visible
29 Nov - 03:03:07 10° S 03:06:35 15° SSE 03:09:33 10° ESE visible
29 Nov - 05:05:48 10° WSW 05:11:01 64° NW 05:15:24 10° NE visible
29 Nov - 13:36:13 10° N 13:41:40 15° NE 13:47:56 10° ENE daylight
29 Nov - 15:36:13 10° NNW 15:47:54 58° NE 16:02:34 10° ESE daylight
29 Nov - 17:41:28 10° WNW 17:54:44 54° SW 18:09:15 10° SSE daylight
29 Nov - 19:54:14 10° WSW 20:03:05 18° SSW 20:11:35 10° S visible
30 Nov - 02:31:02 10° S 02:34:08 13° SSE 02:36:50 10° SE visible
30 Nov - 04:33:18 10° SW 04:38:59 86° NW 04:43:29 10° NE visible
30 Nov - 13:06:15 10° NNE 13:08:50 11° NE 13:11:37 10° NE daylight
30 Nov - 15:04:04 10° NNW 15:14:56 50° NE 15:29:01 10° ESE daylight
30 Nov - 17:08:35 10° WNW 17:21:31 60° SW 17:36:26 10° SE daylight
30 Nov - 19:19:49 10° WSW 19:29:45 21° SSW 19:39:32 10° S visible
01 Dec - 01:58:58 10° S 02:01:37 12° SSE 02:03:59 10° SE visible
01 Dec - 04:00:45 10° SW 04:06:55 74° SE 04:11:31 10° NE visible
01 Dec - 14:32:02 10° NNW 14:42:04 43° NE 14:55:19 10° ESE daylight
01 Dec - 16:35:52 10° WNW 16:48:21 67° SW 17:03:30 10° SE daylight
01 Dec - 18:45:46 10° W 18:56:25 24° SW 19:07:16 10° SSE visible
02 Dec - 01:26:59 10° S 01:29:01 11° SSE 01:30:54 10° SE visible
02 Dec - 03:28:11 10° SW 03:34:46 59° SE 03:39:32 10° ENE visible
02 Dec - 05:36:12 10° WNW 05:38:14 12° NW 05:40:10 10° NNW daylight
02 Dec - 14:00:08 10° NNW 14:09:17 36° NE 14:21:27 10° ESE daylight
02 Dec - 16:03:17 10° NW 16:15:14 75° SW 16:30:27 10° SE daylight
02 Dec - 18:12:01 10° W 18:23:06 27° SW 18:34:50 10° SSE visible
03 Dec - 00:55:16 10° SSE 00:56:20 10° SSE 00:57:22 10° SSE visible
03 Dec - 02:55:34 10° SW 03:02:33 48° SE 03:07:30 10° ENE visible
03 Dec - 05:02:38 10° W 05:06:07 17° NW 05:09:12 10° N visible
03 Dec - 13:28:24 10° NNW 13:36:35 30° NE 13:47:25 10° E daylight
03 Dec - 15:30:51 10° NW 15:42:11 83° SW 15:57:17 10° SE daylight
03 Dec - 17:38:33 10° W 17:49:48 30° SW 18:02:14 10° SSE daylight
